| time (UTC) | temp F | wind direction | speed MPH | gust MPH | rain 1hr in | rain 24hr in | rain mn in | humidity % | barometer mb |
| 20260503225334 | 55 | 243 | 0.0 | 0.0 | 0.00 | 0.00 | 0.00 | 81 | 1019.4 |
| 20260503224334 | 55 | 243 | 0.0 | 0.0 | 0.00 | 0.00 | 0.00 | 82 | 1019.4 |
| 20260503223327 | 54 | 243 | 0.0 | 0.0 | 0.00 | 0.00 | 0.00 | 82 | 1019.4 |
| 20260503222340 | 54 | 243 | 0.0 | 0.0 | 0.00 | 0.00 | 0.00 | 82 | 1019.4 |
| 20260503221339 | 55 | 243 | 0.0 | 0.0 | 0.00 | 0.00 | 0.00 | 83 | 1019.4 |
| 20260503220337 | 54 | 243 | 0.0 | 0.0 | 0.00 | 0.00 | 0.00 | 83 | 1019.4 |
| 20260503215339 | 54 | 243 | 0.0 | 0.0 | 0.00 | 0.00 | 0.00 | 83 | 1019.4 |
| 20260503214339 | 55 | 243 | 0.0 | 0.0 | 0.00 | 0.00 | 0.00 | 83 | 1019.3 |
| 20260503213328 | 55 | 243 | 0.0 | 0.0 | 0.00 | 0.00 | 0.00 | 82 | 1019.2 |
| 20260503212336 | 54 | 243 | 0.0 | 0.0 | 0.00 | 0.00 | 0.00 | 81 | 1019.4 |
| 20260503211338 | 55 | 243 | 0.0 | 0.0 | 0.00 | 0.00 | 0.00 | 82 | 1019.4 |
| 20260503210330 | 55 | 243 | 0.0 | 0.0 | 0.00 | 0.00 | 0.00 | 84 | 1019.5 |
| 20260503205342 | 54 | 243 | 0.0 | 0.0 | 0.00 | 0.00 | 0.00 | 84 | 1019.4 |
| 20260503204340 | 55 | 243 | 0.0 | 0.0 | 0.00 | 0.00 | 0.00 | 83 | 1019.5 |
| 20260503203401 | 55 | 243 | 0.0 | 0.0 | 0.00 | 0.00 | 0.00 | 85 | 1019.6 |
| 20260503202339 | 55 | 243 | 0.0 | 0.0 | 0.00 | 0.00 | 0.00 | 84 | 1019.7 |
| 20260503201337 | 55 | 243 | 0.0 | 0.0 | 0.00 | 0.00 | 0.00 | 85 | 1019.7 |
| 20260503200327 | 55 | 244 | 0.0 | 0.0 | 0.00 | 0.00 | 0.00 | 83 | 1019.6 |
| 20260503195338 | 56 | 244 | 0.0 | 0.0 | 0.00 | 0.00 | 0.00 | 83 | 1019.7 |
| 20260503194339 | 56 | 244 | 0.0 | 0.0 | 0.00 | 0.00 | 0.00 | 83 | 1019.5 |
| 20260503193329 | 56 | 244 | 0.0 | 0.0 | 0.00 | 0.00 | 0.00 | 83 | 1019.6 |
| 20260503192408 | 56 | 244 | 0.0 | 0.0 | 0.00 | 0.00 | 0.00 | 82 | 1019.5 |
| 20260503191402 | 56 | 306 | 0.0 | 0.0 | 0.00 | 0.00 | 0.00 | 84 | 1019.4 |
| 20260503190332 | 56 | 309 | 0.0 | 0.0 | 0.00 | 0.00 | 0.00 | 83 | 1019.3 |
| 20260503185341 | 56 | 309 | 0.0 | 0.0 | 0.00 | 0.00 | 0.00 | 83 | 1019.3 |
| 20260503184342 | 57 | 338 | 0.0 | 0.0 | 0.00 | 0.00 | 0.00 | 84 | 1019.2 |
| 20260503183343 | 57 | 338 | 0.0 | 0.0 | 0.00 | 0.00 | 0.00 | 84 | 1019.3 |
| 20260503182345 | 57 | 338 | 0.0 | 0.0 | 0.00 | 0.00 | 0.00 | 84 | 1019.1 |
| 20260503181338 | 58 | 338 | 0.0 | 0.0 | 0.00 | 0.00 | 0.00 | 84 | 1019.2 |
| 20260503180327 | 58 | 338 | 0.0 | 0.0 | 0.00 | 0.00 | 0.00 | 83 | 1019.0 |
| 20260503175339 | 59 | 338 | 0.0 | 0.0 | 0.00 | 0.00 | 0.00 | 83 | 1019.1 |
| 20260503174342 | 59 | 338 | 0.0 | 0.0 | 0.00 | 0.00 | 0.00 | 83 | 1019.1 |
| 20260503173343 | 59 | 322 | 0.0 | 0.0 | 0.00 | 0.00 | 0.00 | 83 | 1019.2 |
| 20260503172335 | 59 | 323 | 0.0 | 0.0 | 0.00 | 0.00 | 0.00 | 81 | 1019.3 |
| 20260503171355 | 59 | 323 | 0.0 | 0.0 | 0.00 | 0.00 | 0.00 | 79 | 1019.3 |
| 20260503170326 | 59 | 258 | 0.0 | 0.0 | 0.00 | 0.00 | 0.00 | 79 | 1019.4 |
| 20260503150348 | 63 | 129 | 0.0 | 0.0 | 0.00 | 0.00 | 0.00 | 68 | 1019.9 |
| 20260503131339 | 68 | 117 | 0.0 | 0.0 | 0.00 | 0.00 | 0.00 | 68 | 1021.1 |
| 20260503130328 | 68 | 108 | 0.0 | 2.0 | 0.00 | 0.00 | 0.00 | 68 | 1021.2 |
| 20260503110340 | 68 | 89 | 0.0 | 4.0 | 0.00 | 0.00 | 0.00 | 69 | 1022.2 |
| 20260503090339 | 68 | 119 | 0.0 | 5.0 | 0.00 | 0.00 | 0.00 | 56 | 1022.4 |
| 20260503081328 | 67 | 129 | 0.0 | 0.0 | 0.00 | 0.00 | 0.00 | 50 | 1022.2 |
| 20260503080333 | 67 | 322 | 0.0 | 0.0 | 0.00 | 0.00 | 0.00 | 50 | 1022.0 |
| 20260503072337 | 65 | 108 | 0.0 | 0.0 | 0.00 | 0.00 | 0.00 | 56 | 1021.9 |
| 20260503071354 | 64 | 104 | 0.0 | 1.0 | 0.00 | 0.00 | 0.00 | 57 | 1021.8 |
| 20260503070349 | 63 | 104 | 0.0 | 2.0 | 0.00 | 0.00 | 0.00 | 53 | 1021.8 |
| 20260503060328 | 59 | 229 | 0.0 | 0.0 | 0.00 | 0.00 | 0.00 | 79 | 1022.0 |
| 20260503054334 | 57 | 229 | 0.0 | 0.0 | 0.00 | 0.00 | 0.00 | 79 | 1022.0 |
| 20260503053331 | 56 | 229 | 0.0 | 0.0 | 0.00 | 0.00 | 0.00 | 78 | 1021.9 |
| 20260503052336 | 55 | 229 | 0.0 | 0.0 | 0.00 | 0.00 | 0.00 | 75 | 1021.9 |
| 20260503051336 | 55 | 229 | 0.0 | 0.0 | 0.00 | 0.00 | 0.00 | 75 | 1022.0 |
| 20260503050332 | 54 | 229 | 0.0 | 0.0 | 0.00 | 0.00 | 0.00 | 71 | 1021.9 |
| 20260503045338 | 53 | 229 | 0.0 | 1.0 | 0.00 | 0.00 | 0.00 | 67 | 1021.8 |
| 20260503044336 | 53 | 229 | 1.0 | 1.0 | 0.00 | 0.00 | 0.00 | 68 | 1021.9 |
| 20260503043331 | 52 | 229 | 1.0 | 2.0 | 0.00 | 0.00 | 0.00 | 68 | 1021.9 |
| 20260503042328 | 51 | 229 | 2.0 | 2.0 | 0.00 | 0.00 | 0.00 | 71 | 1021.8 |
| 20260503041343 | 52 | 229 | 2.0 | 2.0 | 0.00 | 0.00 | 0.00 | 74 | 1021.7 |
| 20260503040403 | 52 | 229 | 1.0 | 2.0 | 0.00 | 0.00 | 0.00 | 70 | 1021.7 |
| 20260503035359 | 52 | 229 | 1.0 | 2.0 | 0.00 | 0.00 | 0.00 | 68 | 1021.8 |
| 20260503034328 | 52 | 229 | 1.0 | 2.0 | 0.00 | 0.00 | 0.00 | 69 | 1021.8 |
| 20260503033326 | 52 | 229 | 1.0 | 2.0 | 0.00 | 0.00 | 0.00 | 64 | 1021.9 |
| 20260503032343 | 52 | 229 | 1.0 | 2.0 | 0.00 | 0.00 | 0.00 | 62 | 1021.9 |
| 20260503031340 | 52 | 229 | 1.0 | 2.0 | 0.00 | 0.00 | 0.00 | 64 | 1021.9 |
| 20260503030332 | 52 | 230 | 2.0 | 2.0 | 0.00 | 0.00 | 0.00 | 63 | 1021.9 |
| 20260503025345 | 52 | 230 | 2.0 | 2.0 | 0.00 | 0.00 | 0.00 | 62 | 1022.2 |
| 20260503024345 | 52 | 228 | 2.0 | 2.0 | 0.00 | 0.00 | 0.00 | 62 | 1022.1 |
| 20260503023402 | 52 | 229 | 1.0 | 2.0 | 0.00 | 0.00 | 0.00 | 62 | 1022.0 |
| 20260503022339 | 52 | 231 | 2.0 | 2.0 | 0.00 | 0.00 | 0.00 | 61 | 1022.0 |
| 20260503021337 | 52 | 228 | 2.0 | 2.0 | 0.00 | 0.00 | 0.00 | 63 | 1021.9 |
| 20260503020325 | 52 | 231 | 2.0 | 2.0 | 0.00 | 0.00 | 0.00 | 61 | 1022.0 |
| 20260503015328 | 52 | 229 | 2.0 | 2.0 | 0.00 | 0.00 | 0.00 | 59 | 1022.0 |
| 20260503014345 | 52 | 229 | 2.0 | 2.0 | 0.00 | 0.00 | 0.00 | 60 | 1022.0 |
| 20260503013341 | 52 | 229 | 2.0 | 2.0 | 0.00 | 0.00 | 0.00 | 59 | 1022.0 |
| 20260503012328 | 52 | 233 | 2.0 | 2.0 | 0.00 | 0.00 | 0.00 | 58 | 1022.1 |
| 20260503011346 | 52 | 229 | 2.0 | 2.0 | 0.00 | 0.00 | 0.00 | 58 | 1022.1 |
| 20260503010403 | 52 | 229 | 2.0 | 2.0 | 0.00 | 0.00 | 0.00 | 59 | 1022.2 |
| 20260503005340 | 52 | 228 | 2.0 | 2.0 | 0.00 | 0.00 | 0.00 | 60 | 1022.3 |
| 20260503004334 | 52 | 229 | 2.0 | 2.0 | 0.00 | 0.00 | 0.00 | 61 | 1022.4 |
| 20260503003329 | 52 | 228 | 2.0 | 2.0 | 0.00 | 0.00 | 0.00 | 61 | 1022.4 |
| 20260503002336 | 52 | 228 | 2.0 | 2.0 | 0.00 | 0.00 | 0.00 | 62 | 1022.6 |
| 20260503001336 | 52 | 228 | 2.0 | 2.0 | 0.00 | 0.00 | 0.00 | 63 | 1022.6 |
| 20260503000331 | 52 | 227 | 1.0 | 2.0 | 0.00 | 0.00 | 0.00 | 65 | 1022.8 |
| 20260502235407 | 53 | 233 | 2.0 | 2.0 | 0.00 | 0.00 | 0.00 | 66 | 1022.8 |
| 20260502234344 | 53 | 231 | 2.0 | 2.0 | 0.00 | 0.00 | 0.00 | 67 | 1022.9 |
| 20260502233330 | 53 | 229 | 1.0 | 2.0 | 0.00 | 0.00 | 0.00 | 66 | 1022.9 |
| 20260502232344 | 53 | 229 | 1.0 | 2.0 | 0.00 | 0.00 | 0.00 | 67 | 1022.9 |
| 20260502231341 | 53 | 229 | 1.0 | 2.0 | 0.00 | 0.00 | 0.00 | 67 | 1023.0 |
| 20260502230339 | 53 | 230 | 1.0 | 2.0 | 0.00 | 0.00 | 0.00 | 66 | 1023.2 |